JBU231 KBOS-KDCA

Flight info

Callsign JBU231
Flight time 1h 14m
Altitude 36000
Route SSOXS7 SSOXS Q167 ZIZZI KNUKK ATR LAFLN DEALE3
Aircraft A320/M-SDE3FGHIRWY/LB1

Departure

Time 2026-05-05 23:21
Airport Boston Logan International Airport (KBOS)

Arrival

Time 2026-05-06 00:36
Airport Ronald Reagan Washington National Airport (KDCA)
Time Latitude Longitude Altitude Speed Heading
2026-05-05 23:01 42.36642 -71.01522 26 ft 0 kts 237°
2026-05-05 23:09 42.36651 -71.01502 27 ft 3 kts 236°
2026-05-05 23:10 42.36662 -71.01481 30 ft 3 kts 236°
2026-05-05 23:10 42.36671 -71.01461 27 ft 2 kts 231°
2026-05-05 23:10 42.36686 -71.01451 29 ft 2 kts 156°
2026-05-05 23:10 42.36693 -71.01456 29 ft 0 kts 123°
2026-05-05 23:11 42.36692 -71.01455 29 ft 0 kts 123°
2026-05-05 23:13 42.36692 -71.01454 29 ft 0 kts 120°
2026-05-05 23:13 42.36690 -71.01447 28 ft 2 kts 111°
2026-05-05 23:14 42.36691 -71.01407 26 ft 5 kts 80°
2026-05-05 23:14 42.36697 -71.01363 26 ft 5 kts 79°
2026-05-05 23:14 42.36703 -71.01322 28 ft 3 kts 79°
2026-05-05 23:14 42.36707 -71.01292 29 ft 5 kts 76°
2026-05-05 23:15 42.36731 -71.01247 29 ft 8 kts 33°
2026-05-05 23:15 42.36798 -71.01272 28 ft 14 kts 333°
2026-05-05 23:15 42.36881 -71.01228 27 ft 14 kts 41°
2026-05-05 23:15 42.36952 -71.01145 28 ft 13 kts 40°
2026-05-05 23:16 42.37031 -71.01078 28 ft 14 kts 27°
2026-05-05 23:16 42.37126 -71.01017 28 ft 15 kts 25°
2026-05-05 23:16 42.37220 -71.00957 27 ft 15 kts 26°
2026-05-05 23:16 42.37317 -71.00898 25 ft 16 kts 20°
2026-05-05 23:17 42.37419 -71.00847 25 ft 15 kts 20°
2026-05-05 23:17 42.37515 -71.00801 27 ft 14 kts 19°
2026-05-05 23:17 42.37607 -71.00756 28 ft 14 kts 19°
2026-05-05 23:17 42.37690 -71.00716 31 ft 11 kts 20°
2026-05-05 23:18 42.37760 -71.00682 33 ft 10 kts 19°
2026-05-05 23:18 42.37825 -71.00641 32 ft 9 kts 46°
2026-05-05 23:18 42.37835 -71.00573 31 ft 0 kts 103°
2026-05-05 23:19 42.37835 -71.00572 31 ft 1 kts 103°
2026-05-05 23:20 42.37826 -71.00531 30 ft 9 kts 110°
2026-05-05 23:20 42.37776 -71.00483 29 ft 10 kts 184°
2026-05-05 23:20 42.37749 -71.00493 29 ft 0 kts 200°
2026-05-05 23:20 42.37736 -71.00499 29 ft 9 kts 200°
2026-05-05 23:21 42.37492 -71.00619 27 ft 72 kts 200°
2026-05-05 23:21 42.36828 -71.00938 32 ft 130 kts 200°
2026-05-05 23:21 42.35909 -71.01371 407 ft 142 kts 198°
2026-05-05 23:21 42.34947 -71.01743 946 ft 148 kts 185°
2026-05-05 23:22 42.33933 -71.01218 1533 ft 177 kts 148°
2026-05-05 23:22 42.33264 -70.99685 2255 ft 195 kts 130°
2026-05-05 23:22 42.32534 -70.98134 2904 ft 194 kts 143°
2026-05-05 23:22 42.31623 -70.96755 3587 ft 200 kts 144°
2026-05-05 23:23 42.30798 -70.95075 4157 ft 238 kts 116°
2026-05-05 23:23 42.30746 -70.92664 4561 ft 282 kts 80°
2026-05-05 23:23 42.31351 -70.90017 5079 ft 303 kts 73°
2026-05-05 23:23 42.31991 -70.87271 5843 ft 310 kts 76°
2026-05-05 23:24 42.32554 -70.84429 6748 ft 314 kts 78°
2026-05-05 23:24 42.32986 -70.81579 7691 ft 315 kts 87°
2026-05-05 23:24 42.32757 -70.78680 8680 ft 309 kts 112°
2026-05-05 23:24 42.31972 -70.75975 9697 ft 310 kts 118°
2026-05-05 23:25 42.31053 -70.73277 10463 ft 320 kts 120°
2026-05-05 23:25 42.29988 -70.70531 10850 ft 340 kts 129°
2026-05-05 23:25 42.28314 -70.68220 11261 ft 348 kts 153°
2026-05-05 23:25 42.26128 -70.66845 11968 ft 350 kts 165°
2026-05-05 23:26 42.23815 -70.65766 12839 ft 354 kts 167°
2026-05-05 23:26 42.21458 -70.64713 13694 ft 359 kts 167°
2026-05-05 23:26 42.19073 -70.63645 14487 ft 363 kts 167°
2026-05-05 23:26 42.16686 -70.62631 15279 ft 365 kts 171°
2026-05-05 23:27 42.14178 -70.62110 16012 ft 364 kts 183°
2026-05-05 23:27 42.11677 -70.62406 16785 ft 361 kts 196°
2026-05-05 23:27 42.09251 -70.63315 17558 ft 363 kts 201°
2026-05-05 23:27 42.06839 -70.64383 18293 ft 367 kts 202°
2026-05-05 23:28 42.04403 -70.65482 18911 ft 372 kts 202°
2026-05-05 23:28 42.01923 -70.66593 19535 ft 377 kts 202°
2026-05-05 23:28 41.99419 -70.67706 20184 ft 381 kts 201°
2026-05-05 23:28 41.96876 -70.68830 20781 ft 386 kts 201°
2026-05-05 23:29 41.94308 -70.69961 21379 ft 391 kts 201°
2026-05-05 23:29 41.91705 -70.71105 21985 ft 395 kts 201°
2026-05-05 23:29 41.89081 -70.72256 22578 ft 400 kts 201°
2026-05-05 23:29 41.86422 -70.73421 23161 ft 404 kts 201°
2026-05-05 23:30 41.83771 -70.74733 23697 ft 406 kts 207°
2026-05-05 23:30 41.82089 -70.75795 24016 ft 407 kts 209°
2026-05-05 23:30 41.78724 -70.78176 24659 ft 410 kts 212°
2026-05-05 23:30 41.76251 -70.80046 25156 ft 413 kts 213°
2026-05-05 23:31 41.73747 -70.81974 25502 ft 420 kts 213°
2026-05-05 23:31 41.71181 -70.83953 25703 ft 430 kts 213°
2026-05-05 23:31 41.68556 -70.85962 25884 ft 440 kts 213°
2026-05-05 23:31 41.65873 -70.87996 26119 ft 448 kts 212°
2026-05-05 23:32 41.63140 -70.90052 26486 ft 452 kts 212°
2026-05-05 23:32 41.60384 -70.92113 26862 ft 456 kts 212°
2026-05-05 23:32 41.57651 -70.94290 27191 ft 458 kts 217°
2026-05-05 23:32 41.55143 -70.96902 27558 ft 457 kts 225°
2026-05-05 23:33 41.52975 -70.99992 27922 ft 456 kts 234°
2026-05-05 23:33 41.51066 -71.03375 28368 ft 456 kts 237°
2026-05-05 23:33 41.49264 -71.06835 28880 ft 454 kts 238°
2026-05-05 23:33 41.47511 -71.10347 29415 ft 453 kts 239°
2026-05-05 23:34 41.45782 -71.13862 29959 ft 452 kts 239°
2026-05-05 23:34 41.44643 -71.16181 30234 ft 452 kts 240°
2026-05-05 23:34 41.42907 -71.19700 30559 ft 454 kts 239°
2026-05-05 23:34 41.41166 -71.23201 30967 ft 454 kts 239°
2026-05-05 23:35 41.38844 -71.27837 31522 ft 453 kts 239°
2026-05-05 23:35 41.37663 -71.30184 31784 ft 453 kts 239°
2026-05-05 23:35 41.35905 -71.33668 32183 ft 452 kts 239°
2026-05-05 23:35 41.34170 -71.37103 32568 ft 452 kts 239°
2026-05-05 23:36 41.32393 -71.40617 32969 ft 451 kts 240°
2026-05-05 23:36 41.30664 -71.44031 33332 ft 451 kts 240°
2026-05-05 23:36 41.28911 -71.47492 33710 ft 450 kts 240°
2026-05-05 23:36 41.27164 -71.50939 34057 ft 450 kts 240°
2026-05-05 23:37 41.25420 -71.54375 34434 ft 447 kts 240°
2026-05-05 23:37 41.23682 -71.57792 34864 ft 444 kts 240°
2026-05-05 23:37 41.21957 -71.61182 35280 ft 440 kts 239°
2026-05-05 23:37 41.20238 -71.64556 35632 ft 439 kts 239°
2026-05-05 23:38 41.18533 -71.67901 35956 ft 437 kts 239°
2026-05-05 23:38 41.16833 -71.71234 36042 ft 436 kts 239°
2026-05-05 23:38 41.15132 -71.74566 35939 ft 435 kts 239°
2026-05-05 23:38 41.13459 -71.77849 35941 ft 436 kts 239°
2026-05-05 23:39 41.10054 -71.84545 35941 ft 437 kts 239°
2026-05-05 23:39 41.06653 -71.91227 35939 ft 437 kts 239°
2026-05-05 23:40 41.03397 -71.98000 35947 ft 433 kts 246°
2026-05-05 23:40 41.00731 -72.05146 35946 ft 432 kts 248°
2026-05-05 23:41 40.98186 -72.12350 35943 ft 432 kts 248°
2026-05-05 23:41 40.95652 -72.19579 35941 ft 433 kts 248°
2026-05-05 23:42 40.93119 -72.26740 35938 ft 433 kts 246°
2026-05-05 23:42 40.89743 -72.33373 35945 ft 439 kts 232°
2026-05-05 23:43 40.85515 -72.39235 35947 ft 441 kts 229°
2026-05-05 23:43 40.81119 -72.44916 35948 ft 444 kts 227°
2026-05-05 23:44 40.76391 -72.50224 35962 ft 447 kts 224°
2026-05-05 23:44 40.71611 -72.55401 35945 ft 447 kts 224°
2026-05-05 23:45 40.66835 -72.60633 35942 ft 446 kts 225°
2026-05-05 23:45 40.62157 -72.66000 35958 ft 445 kts 225°
2026-05-05 23:46 40.57503 -72.71385 35958 ft 446 kts 225°
2026-05-05 23:46 40.52974 -72.76600 35960 ft 446 kts 225°
2026-05-05 23:47 40.48281 -72.81974 35956 ft 446 kts 225°
2026-05-05 23:47 40.43594 -72.87325 35945 ft 447 kts 225°
2026-05-05 23:48 40.38890 -72.92685 35968 ft 447 kts 225°
2026-05-05 23:48 40.34183 -72.98038 35951 ft 447 kts 225°
2026-05-05 23:49 40.29487 -73.03368 35949 ft 446 kts 225°
2026-05-05 23:49 40.24787 -73.08695 35969 ft 447 kts 225°
2026-05-05 23:50 40.20112 -73.13983 35958 ft 447 kts 225°
2026-05-05 23:50 40.15407 -73.19293 35965 ft 447 kts 225°
2026-05-05 23:51 40.10688 -73.24609 35964 ft 447 kts 225°
2026-05-05 23:51 40.05968 -73.29913 35972 ft 448 kts 225°
2026-05-05 23:52 40.01244 -73.35205 35982 ft 447 kts 225°
2026-05-05 23:52 39.96520 -73.40485 35982 ft 447 kts 225°
2026-05-05 23:53 39.91798 -73.45755 35979 ft 447 kts 225°
2026-05-05 23:53 39.87099 -73.50991 35988 ft 448 kts 225°
2026-05-05 23:54 39.82364 -73.56261 35979 ft 448 kts 225°
2026-05-05 23:54 39.77636 -73.61523 35984 ft 448 kts 225°
2026-05-05 23:55 39.72897 -73.66789 35979 ft 448 kts 226°
2026-05-05 23:55 39.68181 -73.72017 35984 ft 446 kts 226°
2026-05-05 23:56 39.63457 -73.77246 35985 ft 446 kts 226°
2026-05-05 23:56 39.58727 -73.82472 35985 ft 446 kts 226°
2026-05-05 23:57 39.53993 -73.87693 35985 ft 446 kts 225°
2026-05-05 23:57 39.49258 -73.92904 35990 ft 446 kts 225°
2026-05-05 23:58 39.44528 -73.98101 35985 ft 446 kts 225°
2026-05-05 23:58 39.39824 -74.03260 35984 ft 446 kts 225°
2026-05-05 23:59 39.35070 -74.08458 35971 ft 446 kts 225°
2026-05-05 23:59 39.30346 -74.13613 35974 ft 447 kts 225°
2026-05-06 00:00 39.25592 -74.18791 35983 ft 447 kts 225°
2026-05-06 00:00 39.23218 -74.21370 35840 ft 441 kts 225°
2026-05-06 00:00 39.20894 -74.23889 35584 ft 434 kts 225°
2026-05-06 00:01 39.18590 -74.26387 35334 ft 432 kts 226°
2026-05-06 00:01 39.16287 -74.28886 35066 ft 433 kts 226°
2026-05-06 00:01 39.13972 -74.31401 34833 ft 435 kts 226°
2026-05-06 00:01 39.11648 -74.33922 34603 ft 436 kts 226°
2026-05-06 00:02 39.09329 -74.36444 34338 ft 436 kts 227°
2026-05-06 00:02 39.07184 -74.39177 34098 ft 434 kts 234°
2026-05-06 00:02 39.05383 -74.42238 33867 ft 436 kts 243°
2026-05-06 00:02 39.03979 -74.45675 33593 ft 430 kts 252°
2026-05-06 00:03 39.03077 -74.49295 33327 ft 424 kts 259°
2026-05-06 00:03 39.02411 -74.52988 33052 ft 422 kts 261°
2026-05-06 00:03 39.01793 -74.56668 32791 ft 421 kts 261°
2026-05-06 00:03 39.01180 -74.60348 32524 ft 420 kts 261°
2026-05-06 00:04 39.00565 -74.64016 32256 ft 419 kts 261°
2026-05-06 00:04 38.99949 -74.67668 31996 ft 417 kts 260°
2026-05-06 00:04 38.99331 -74.71310 31751 ft 416 kts 260°
2026-05-06 00:04 38.98715 -74.74936 31494 ft 415 kts 260°
2026-05-06 00:05 38.97477 -74.82180 30995 ft 413 kts 259°
2026-05-06 00:05 38.96861 -74.85778 30745 ft 412 kts 259°
2026-05-06 00:05 38.96247 -74.89349 30504 ft 411 kts 259°
2026-05-06 00:06 38.95628 -74.92950 30261 ft 409 kts 259°
2026-05-06 00:06 38.95022 -74.96461 30016 ft 405 kts 259°
2026-05-06 00:06 38.94409 -75.00002 29717 ft 395 kts 259°
2026-05-06 00:06 38.93827 -75.03360 29451 ft 385 kts 259°
2026-05-06 00:07 38.93249 -75.06694 28569 ft 383 kts 258°
2026-05-06 00:07 38.92672 -75.10016 27984 ft 375 kts 258°
2026-05-06 00:07 38.92115 -75.13212 27666 ft 360 kts 258°
2026-05-06 00:07 38.91576 -75.16306 27219 ft 350 kts 258°
2026-05-06 00:08 38.91048 -75.19331 26654 ft 345 kts 258°
2026-05-06 00:08 38.90526 -75.22317 26061 ft 340 kts 257°
2026-05-06 00:08 38.90010 -75.25267 25468 ft 337 kts 257°
2026-05-06 00:08 38.89495 -75.28203 24791 ft 336 kts 257°
2026-05-06 00:09 38.88983 -75.31119 24256 ft 332 kts 257°
2026-05-06 00:09 38.88480 -75.33979 23779 ft 328 kts 256°
2026-05-06 00:09 38.87976 -75.36836 23242 ft 326 kts 256°
2026-05-06 00:09 38.87474 -75.39675 22720 ft 326 kts 256°
2026-05-06 00:10 38.86971 -75.42518 22215 ft 326 kts 256°
2026-05-06 00:10 38.86471 -75.45345 21773 ft 324 kts 256°
2026-05-06 00:10 38.85971 -75.48166 21320 ft 323 kts 256°
2026-05-06 00:10 38.85473 -75.50965 20865 ft 321 kts 255°
2026-05-06 00:11 38.84979 -75.53746 20353 ft 318 kts 255°
2026-05-06 00:11 38.84490 -75.56492 19739 ft 315 kts 255°
2026-05-06 00:11 38.84011 -75.59177 19238 ft 310 kts 255°
2026-05-06 00:11 38.83526 -75.61895 18757 ft 307 kts 255°
2026-05-06 00:12 38.83053 -75.64536 18262 ft 307 kts 255°
2026-05-06 00:12 38.82576 -75.67198 17716 ft 305 kts 255°
2026-05-06 00:12 38.82102 -75.69837 17348 ft 304 kts 255°
2026-05-06 00:12 38.81627 -75.72483 16895 ft 304 kts 255°
2026-05-06 00:13 38.81152 -75.75123 16437 ft 303 kts 255°
2026-05-06 00:13 38.80680 -75.77741 15982 ft 301 kts 255°
2026-05-06 00:13 38.80212 -75.80335 15679 ft 295 kts 255°
2026-05-06 00:13 38.79749 -75.82903 15231 ft 295 kts 256°
2026-05-06 00:14 38.79290 -75.85438 14921 ft 288 kts 256°
2026-05-06 00:14 38.78842 -75.87913 14434 ft 283 kts 256°
2026-05-06 00:14 38.78397 -75.90366 13877 ft 281 kts 256°
2026-05-06 00:14 38.77958 -75.92782 13224 ft 281 kts 256°
2026-05-06 00:15 38.77519 -75.95196 12671 ft 276 kts 256°
2026-05-06 00:15 38.77085 -75.97582 12258 ft 273 kts 256°
2026-05-06 00:15 38.76651 -75.99961 11843 ft 273 kts 256°
2026-05-06 00:15 38.76219 -76.02329 11432 ft 271 kts 256°
2026-05-06 00:16 38.75799 -76.04673 11113 ft 268 kts 258°
2026-05-06 00:16 38.75592 -76.07006 11042 ft 267 kts 268°
2026-05-06 00:16 38.75708 -76.09393 11042 ft 269 kts 273°
2026-05-06 00:16 38.75919 -76.11781 11040 ft 270 kts 274°
2026-05-06 00:17 38.76146 -76.14168 11041 ft 270 kts 275°
2026-05-06 00:17 38.76374 -76.16547 11037 ft 269 kts 274°
2026-05-06 00:17 38.76600 -76.18930 11039 ft 268 kts 274°
2026-05-06 00:17 38.76824 -76.21300 11039 ft 268 kts 274°
2026-05-06 00:18 38.77046 -76.23677 11034 ft 268 kts 274°
2026-05-06 00:18 38.77268 -76.26050 11039 ft 268 kts 274°
2026-05-06 00:18 38.77486 -76.28391 11036 ft 269 kts 274°
2026-05-06 00:18 38.77707 -76.30774 11040 ft 268 kts 274°
2026-05-06 00:19 38.77927 -76.33149 11037 ft 268 kts 274°
2026-05-06 00:19 38.78147 -76.35526 11042 ft 268 kts 274°
2026-05-06 00:19 38.78365 -76.37898 11035 ft 268 kts 274°
2026-05-06 00:19 38.78584 -76.40275 11032 ft 268 kts 274°
2026-05-06 00:20 38.78803 -76.42659 11041 ft 268 kts 274°
2026-05-06 00:20 38.79020 -76.45032 11031 ft 268 kts 274°
2026-05-06 00:20 38.79234 -76.47379 11029 ft 268 kts 274°
2026-05-06 00:20 38.79451 -76.49752 11021 ft 268 kts 274°
2026-05-06 00:21 38.79665 -76.52132 11020 ft 269 kts 273°
2026-05-06 00:21 38.79805 -76.54524 11017 ft 270 kts 271°
2026-05-06 00:21 38.79899 -76.56923 11013 ft 269 kts 270°
2026-05-06 00:21 38.79982 -76.59313 11018 ft 268 kts 270°
2026-05-06 00:22 38.80062 -76.61705 11021 ft 269 kts 270°
2026-05-06 00:22 38.80116 -76.63291 11018 ft 269 kts 270°
2026-05-06 00:22 38.80194 -76.65684 11017 ft 268 kts 270°
2026-05-06 00:22 38.80274 -76.68073 11010 ft 269 kts 270°
2026-05-06 00:23 38.80353 -76.70462 11017 ft 269 kts 270°
2026-05-06 00:23 38.80432 -76.72857 11021 ft 269 kts 270°
2026-05-06 00:23 38.80513 -76.75251 11013 ft 269 kts 271°
2026-05-06 00:23 38.80810 -76.77623 11008 ft 272 kts 284°
2026-05-06 00:24 38.81656 -76.79812 11017 ft 278 kts 299°
2026-05-06 00:24 38.82820 -76.81805 11008 ft 280 kts 303°
2026-05-06 00:24 38.83989 -76.83666 11007 ft 283 kts 304°
2026-05-06 00:24 38.85207 -76.85590 10964 ft 279 kts 304°
2026-05-06 00:25 38.86424 -76.87523 10577 ft 278 kts 304°
2026-05-06 00:25 38.87658 -76.89451 10105 ft 282 kts 307°
2026-05-06 00:25 38.89012 -76.91277 9707 ft 282 kts 310°
2026-05-06 00:25 38.90398 -76.93052 9258 ft 281 kts 310°
2026-05-06 00:26 38.91786 -76.94817 8819 ft 280 kts 309°
2026-05-06 00:26 38.93169 -76.96577 8374 ft 279 kts 309°
2026-05-06 00:26 38.94545 -76.98334 7940 ft 279 kts 309°
2026-05-06 00:26 38.95916 -77.00087 7488 ft 279 kts 309°
2026-05-06 00:27 38.97291 -77.01847 7062 ft 278 kts 308°
2026-05-06 00:27 38.98656 -77.03595 6646 ft 278 kts 308°
2026-05-06 00:27 39.00028 -77.05352 6256 ft 277 kts 308°
2026-05-06 00:27 39.01390 -77.07099 5847 ft 275 kts 308°
2026-05-06 00:28 39.02730 -77.08818 5416 ft 275 kts 308°
2026-05-06 00:28 39.04092 -77.10537 4987 ft 272 kts 309°
2026-05-06 00:28 39.05444 -77.12216 4446 ft 269 kts 309°
2026-05-06 00:28 39.06793 -77.13891 3814 ft 271 kts 309°
2026-05-06 00:29 39.08111 -77.15606 3298 ft 264 kts 301°
2026-05-06 00:29 39.08803 -77.17631 3048 ft 234 kts 270°
2026-05-06 00:29 39.08576 -77.19516 3027 ft 198 kts 238°
2026-05-06 00:29 39.07671 -77.20623 3021 ft 172 kts 204°
2026-05-06 00:30 39.06509 -77.20693 3011 ft 171 kts 176°
2026-05-06 00:30 39.05358 -77.20277 3027 ft 172 kts 170°
2026-05-06 00:30 39.04218 -77.19793 3027 ft 173 kts 169°
2026-05-06 00:30 39.03076 -77.19303 3009 ft 172 kts 169°
2026-05-06 00:31 39.01939 -77.18792 2986 ft 175 kts 167°
2026-05-06 00:31 39.00823 -77.18121 2885 ft 178 kts 160°
2026-05-06 00:31 38.99761 -77.17261 2797 ft 182 kts 155°
2026-05-06 00:31 38.98744 -77.16290 2740 ft 182 kts 153°
2026-05-06 00:32 38.97733 -77.15326 2634 ft 180 kts 155°
2026-05-06 00:32 38.96698 -77.14449 2477 ft 177 kts 155°
2026-05-06 00:32 38.95685 -77.13592 2339 ft 172 kts 156°
2026-05-06 00:32 38.94657 -77.12784 2169 ft 174 kts 156°
2026-05-06 00:33 38.93618 -77.12027 1952 ft 175 kts 159°
2026-05-06 00:33 38.92550 -77.11290 1744 ft 170 kts 159°
2026-05-06 00:33 38.91615 -77.10482 1550 ft 155 kts 143°
2026-05-06 00:33 38.90968 -77.09428 1376 ft 147 kts 131°
2026-05-06 00:34 38.90521 -77.08254 1235 ft 145 kts 120°
2026-05-06 00:34 38.90112 -77.07091 1073 ft 139 kts 130°
2026-05-06 00:34 38.89483 -77.06176 966 ft 136 kts 141°
2026-05-06 00:34 38.88780 -77.05364 811 ft 135 kts 148°
2026-05-06 00:35 38.88073 -77.04604 636 ft 131 kts 148°
2026-05-06 00:35 38.87296 -77.04053 453 ft 124 kts 166°
2026-05-06 00:35 38.86468 -77.03917 171 ft 119 kts 177°
2026-05-06 00:35 38.85645 -77.03823 37 ft 114 kts 179°
2026-05-06 00:36 38.84935 -77.03759 28 ft 83 kts 173°
2026-05-06 00:36 38.84538 -77.03714 27 ft 32 kts 175°
2026-05-06 00:36 38.84397 -77.03768 28 ft 16 kts 251°
2026-05-06 00:36 38.84428 -77.03839 29 ft 0 kts 343°
2026-05-06 00:38 38.84454 -77.03845 28 ft 8 kts 352°
2026-05-06 00:38 38.84525 -77.03854 27 ft 11 kts 355°
2026-05-06 00:38 38.84603 -77.03862 27 ft 11 kts 355°
2026-05-06 00:39 38.84677 -77.03870 28 ft 10 kts 355°
2026-05-06 00:39 38.84752 -77.03877 28 ft 11 kts 355°
2026-05-06 00:39 38.84839 -77.03886 26 ft 14 kts 351°
2026-05-06 00:39 38.84912 -77.03951 25 ft 13 kts 347°
2026-05-06 00:40 38.85000 -77.03960 24 ft 13 kts 356°
2026-05-06 00:40 38.85087 -77.03968 26 ft 12 kts 356°
2026-05-06 00:40 38.85173 -77.03976 24 ft 12 kts 356°
2026-05-06 00:40 38.85255 -77.03985 26 ft 11 kts 354°
2026-05-06 00:41 38.85324 -77.04008 27 ft 9 kts 308°
2026-05-06 00:41 38.85325 -77.04073 28 ft 7 kts 256°
2026-05-06 00:41 38.85313 -77.04130 28 ft 7 kts 254°
2026-05-06 00:41 38.85315 -77.04182 28 ft 4 kts 323°
2026-05-06 00:42 38.85336 -77.04193 28 ft 3 kts 341°
2026-05-06 00:42 38.85349 -77.04199 29 ft 0 kts 341°
2026-05-06 00:42 38.85350 -77.04199 29 ft 0 kts 341°